"Pseudo-MPEC" for P115ZDu

Created 2020 Sep 19 11:07:30 UT using Find_Orb

Click here for an explanation of pseudo-MPECs

 
 Astrometry: 
     P115ZDu  C2020 09 08rapk.acONVqc[BgMAvM\R#gyvJ`\_D.!:y/Uc9*s;!6Pw#Wr+URbF51
     P115ZDu  C2020 09 08B,^FFu,j)-+]:F/DsKy/Uw33ogr$sZF%rGKG-Q:!h0;4@:aE9pj)F51
     P115ZDu  C2020 09 08g:J_Ds?#F@OmMExgFfQ;TKU;pI2Kmo8-@RKyAq?p?lo=3o*1^j@:F51
     P115ZDu  C2020 09 08Cfe7[XxUd$siW;;vAstrometryeZB[redacted;w/P[N;@6tXY:xF51
     P115ZDu  C2020 09 08JOVI+t'Xc_M$5m^2N6AXqoNk3d?FCYDH/TqnNxLk7p'm.9uDZ-pPF51
     P115ZDu  C2020 09 14[a=y[cw:aE#;qCnD5`x_gkm@8:'bjcI.*K9y3^(Tt#r;cp*;md[_F51
     P115ZDu  C2020 09 14$bGo%KWv/(5boNeR\9X_1s'M`BtJW4Os5DS`UOJ72-Fw_)jclickF51
     P115ZDu  C2020 09 14=B!jy\q_Xk05Y_co]p/lyY)=ljC)!4wijvL;6*aFt@_75v-Eh,XqF51
     P115ZDu  C2020 09 14#JAHEv6Ft%6p+,here,jm,d3k!#AbH/n[K+wG-BCCh=Yh.eNx2[EF51
     P115ZDu  C2020 09 16qHHforYJ1'+lRjCSwfwt.nvA\^`16rlRrr#tt\y,c*RpNvI%y$oOF51
     P115ZDu  C2020 09 16FQh`b$Y.1+[4%UKX;hn^jjbo`bHdWx0/fKKD*ZUioDHJo'@]C4v4F51
     P115ZDu  C2020 09 16X^]explanationF,($^mgJ8nL$kAmFqtf.T*,2Bi*COf!33h7+Z,F51
     P115ZDu  C2020 09 16-adR(fF(7tHE8*xhBLIq9J_lv2'\shFJfLS#FU#9X-7gYM7+@;j.F51

Station data:
(F51) Pan-STARRS 1, Haleakala  (N20.707235 W156.255910)  US/Hawaii.
   Observers N. Primak, A. Schultz, S. Watters, J. Thiel, T. Goggia. Measurer
   PS1 Science Consortium. 1.8-m Ritchey-Chrétien + CCD.

Orbital elements:  P115ZDu
   Perihelion 2020 Aug 21.205051 +/- 0.472 TT =  4:55:16 (JD 2459082.705051)
Epoch 2020 Sep 16.0 TT = JDT 2459108.5   Earth MOID: 0.5523   AutoNEOCP
M   5.89365514 +/- 0.08             (J2000 ecliptic)
n   0.22848097 +/- 0.00118          Peri.  231.47900 +/- 0.43
a   2.64993985 +/- 0.00912          Node   109.18080 +/- 0.14
e   0.4188337 +/- 0.00179           Incl.    9.52165 +/- 0.021
P   4.31                   H 21.3   G  0.15   U  8.2  
q 1.54005557 +/- 0.00107    Q 3.75982413 +/- 0.0175
From 13 observations 2020 Sept. 8-16; mean residual 0".07
Residuals in arcseconds: 
200908 F51  .03+  .12-    200914 F51  .01-  .00     200916 F51  .04+  .04-    
200908 F51  .23-  .09+    200914 F51  .05-  .01+    200916 F51  .03+  .00     
200908 F51  .00   .03+    200914 F51  .01+  .02+    200916 F51  .04-  .03-    
200908 F51  .11+  .05-    200914 F51  .05+  .03-    
200908 F51  .09+  .05+    200916 F51  .04-  .07+    

Ephemerides (geocentric):
Date (UTC) HH   RA              Dec         delta   r     elong  mag " sig PA
---- -- -- --  -------------   -----------  ------ ------ -----  --- ---- ---
2020 09 19 11  00 43 56.613   -21 37 37.31  .59147 1.5621 155.5 21.9 .750 104
2020 09 19 12  00 43 56.008   -21 37 51.36  .59154 1.5622 155.5 21.9 .761 104
2020 09 19 13  00 43 55.401   -21 38 05.36  .59160 1.5622 155.5 21.9 .773 104
2020 09 19 14  00 43 54.792   -21 38 19.31  .59166 1.5623 155.5 21.9 .784 104
2020 09 19 15  00 43 54.181   -21 38 33.22  .59172 1.5624 155.5 21.9 .796 104
2020 09 19 16  00 43 53.568   -21 38 47.08  .59179 1.5624 155.5 21.9 .807 104
2020 09 19 17  00 43 52.952   -21 39 00.89  .59185 1.5625 155.6 21.9 .819 104
2020 09 19 18  00 43 52.335   -21 39 14.65  .59192 1.5626 155.6 21.9 .831 104
2020 09 19 19  00 43 51.715   -21 39 28.37  .59198 1.5626 155.6 21.9 .843 104
2020 09 19 20  00 43 51.094   -21 39 42.04  .59204 1.5627 155.6 21.9 .855 104
2020 09 19 21  00 43 50.470   -21 39 55.66  .59211 1.5627 155.6 21.9 .867 104
2020 09 19 22  00 43 49.844   -21 40 09.23  .59217 1.5628 155.6 21.9 .879 104
2020 09 19 23  00 43 49.216   -21 40 22.75  .59224 1.5629 155.6 21.9 .891 104
2020 09 20 00  00 43 48.586   -21 40 36.23  .59230 1.5629 155.6 21.9 .903 104
2020 09 20 01  00 43 47.954   -21 40 49.66  .59237 1.5630 155.6 21.9 .915 104
2020 09 20 02  00 43 47.320   -21 41 03.04  .59244 1.5631 155.6 21.9 .927 104
2020 09 20 03  00 43 46.684   -21 41 16.37  .59250 1.5631 155.6 21.9 .940 104
2020 09 20 04  00 43 46.046   -21 41 29.65  .59257 1.5632 155.6 21.9 .952 104
2020 09 20 05  00 43 45.406   -21 41 42.89  .59264 1.5633 155.6 21.9 .965 104
2020 09 20 06  00 43 44.764   -21 41 56.07  .59270 1.5633 155.6 21.9 .977 105
2020 09 20 07  00 43 44.120   -21 42 09.21  .59277 1.5634 155.6 21.9 .990 105
2020 09 20 08  00 43 43.474   -21 42 22.30  .59284 1.5634 155.6 21.9 1.00 105
2020 09 20 09  00 43 42.826   -21 42 35.34  .59291 1.5635 155.6 21.9 1.02 105
2020 09 20 10  00 43 42.176   -21 42 48.33  .59297 1.5636 155.6 21.9 1.03 105
2020 09 20 11  00 43 41.524   -21 43 01.28  .59304 1.5636 155.6 21.9 1.04 105
2020 09 20 12  00 43 40.870   -21 43 14.17  .59311 1.5637 155.6 21.9 1.05 105
2020 09 20 13  00 43 40.214   -21 43 27.02  .59318 1.5638 155.6 21.9 1.07 105
2020 09 20 14  00 43 39.556   -21 43 39.82  .59325 1.5638 155.6 21.9 1.08 105
2020 09 20 15  00 43 38.896   -21 43 52.56  .59332 1.5639 155.6 21.9 1.09 105
2020 09 20 16  00 43 38.234   -21 44 05.26  .59339 1.5640 155.6 21.9 1.11 105
2020 09 20 17  00 43 37.571   -21 44 17.91  .59346 1.5640 155.6 21.9 1.12 105
2020 09 20 18  00 43 36.905   -21 44 30.52  .59353 1.5641 155.6 21.9 1.13 105
2020 09 20 19  00 43 36.238   -21 44 43.07  .59360 1.5642 155.6 21.9 1.15 105
2020 09 20 20  00 43 35.568   -21 44 55.57  .59367 1.5642 155.7 21.9 1.16 105
2020 09 20 21  00 43 34.897   -21 45 08.03  .59374 1.5643 155.7 21.9 1.17 105
2020 09 20 22  00 43 34.224   -21 45 20.43  .59381 1.5643 155.7 21.9 1.19 105
2020 09 20 23  00 43 33.549   -21 45 32.79  .59389 1.5644 155.7 21.9 1.20 105
2020 09 21 00  00 43 32.872   -21 45 45.10  .59396 1.5645 155.7 22.0 1.21 105
2020 09 21 01  00 43 32.193   -21 45 57.35  .59403 1.5645 155.7 22.0 1.23 105
2020 09 21 02  00 43 31.513   -21 46 09.56  .59410 1.5646 155.7 22.0 1.24 106
2020 09 21 03  00 43 30.830   -21 46 21.72  .59418 1.5647 155.7 22.0 1.26 106
2020 09 21 04  00 43 30.146   -21 46 33.83  .59425 1.5647 155.7 22.0 1.27 106
2020 09 21 05  00 43 29.460   -21 46 45.89  .59432 1.5648 155.7 22.0 1.28 106
2020 09 21 06  00 43 28.772   -21 46 57.90  .59440 1.5649 155.7 22.0 1.30 106
2020 09 21 07  00 43 28.083   -21 47 09.86  .59447 1.5649 155.7 22.0 1.31 106
2020 09 21 08  00 43 27.391   -21 47 21.77  .59454 1.5650 155.7 22.0 1.33 106
2020 09 21 09  00 43 26.698   -21 47 33.63  .59462 1.5651 155.7 22.0 1.34 106
2020 09 21 10  00 43 26.003   -21 47 45.44  .59469 1.5651 155.7 22.0 1.35 106